• In Belgien
  • Länderverzeichnis
  • Für 7 Tage
  • Wassertemperatur
  • Satellitenkarten
  • Wetterkarte
  • Widgets
  • user-avatar
    Anmelden

    Stündliche Wetter Constantine

    Heute, 25 September, Montag

    Zeit Temperatur Niederschläge Wind Luftdruck Luftfeuchtigkeit
    00:00 +17°C° 0 mm 0 m/S 713 mmHg 80%
    01:00 +19°C° 0 mm 1 m/S 712 mmHg 79%
    02:00 +19°C° 0 mm 1 m/S 712 mmHg 78%
    03:00 +19°C° 0 mm 1 m/S 712 mmHg 78%
    04:00 +19°C° 0 mm 1 m/S 712 mmHg 75%
    05:00 +19°C° 0 mm 1 m/S 712 mmHg 72%
    06:00 +19°C° 0 mm 1 m/S 712 mmHg 69%
    07:00 +19°C° 0 mm 0 m/S 712 mmHg 58%
    08:00 +21°C° 0 mm 0 m/S 713 mmHg 46%
    09:00 +23°C° 0 mm 0 m/S 713 mmHg 35%
    10:00 +26°C° 0 mm 1 m/S 713 mmHg 30%
    11:00 +27°C° 0 mm 1 m/S 713 mmHg 26%
    12:00 +28°C° 0 mm 1 m/S 713 mmHg 22%
    13:00 +28°C° 0 mm 2 m/S 713 mmHg 22%
    14:00 +29°C° 0 mm 2 m/S 713 mmHg 22%
    15:00 +29°C° 0 mm 2 m/S 712 mmHg 22%
    16:00 +27°C° 0 mm 2 m/S 712 mmHg 27%
    17:00 +26°C° 0 mm 2 m/S 712 mmHg 33%
    18:00 +25°C° 0 mm 2 m/S 712 mmHg 38%
    19:00 +24°C° 0 mm 2 m/S 712 mmHg 42%
    20:00 +23°C° 0 mm 1 m/S 712 mmHg 47%
    21:00 +22°C° 0 mm 1 m/S 712 mmHg 51%
    22:00 +22°C° 0 mm 1 m/S 712 mmHg 52%
    23:00 +21°C° 0 mm 1 m/S 712 mmHg 53%

    Morgen, 26 September, Dienstag

    Zeit Temperatur Niederschläge Wind Luftdruck Luftfeuchtigkeit
    00:00 +21°C° 0 mm 1 m/S 712 mmHg 54%
    01:00 +21°C° 0 mm 1 m/S 711 mmHg 54%
    02:00 +21°C° 0 mm 1 m/S 711 mmHg 55%
    03:00 +20°C° 0 mm 1 m/S 711 mmHg 55%
    04:00 +20°C° 0 mm 1 m/S 711 mmHg 55%
    05:00 +20°C° 0 mm 1 m/S 711 mmHg 54%
    06:00 +20°C° 0 mm 1 m/S 711 mmHg 53%
    07:00 +22°C° 0 mm 1 m/S 711 mmHg 46%
    08:00 +24°C° 0 mm 1 m/S 712 mmHg 39%
    09:00 +27°C° 0 mm 1 m/S 712 mmHg 32%
    10:00 +28°C° 0 mm 1 m/S 712 mmHg 29%
    11:00 +29°C° 0 mm 2 m/S 712 mmHg 25%
    12:00 +30°C° 0 mm 2 m/S 712 mmHg 22%
    13:00 +30°C° 0 mm 3 m/S 712 mmHg 23%
    14:00 +30°C° 0 mm 3 m/S 712 mmHg 23%
    15:00 +30°C° 0 mm 3 m/S 711 mmHg 23%
    16:00 +28°C° 0 mm 3 m/S 711 mmHg 28%
    17:00 +27°C° 0 mm 3 m/S 711 mmHg 33%
    18:00 +25°C° 0 mm 2 m/S 711 mmHg 38%
    19:00 +24°C° 0 mm 2 m/S 711 mmHg 41%
    20:00 +24°C° 0 mm 1 m/S 712 mmHg 44%
    21:00 +23°C° 0 mm 1 m/S 712 mmHg 47%
    22:00 +22°C° 0 mm 1 m/S 712 mmHg 48%
    23:00 +22°C° 0 mm 1 m/S 712 mmHg 49%

    übermorgen, 27 September, Mittwoch

    Zeit Temperatur Niederschläge Wind Luftdruck Luftfeuchtigkeit
    00:00 +19°C° 0 mm 0 m/S 712 mmHg 50%
    01:00 +19°C° 0 mm 0 m/S 711 mmHg 51%
    02:00 +19°C° 0 mm 0 m/S 711 mmHg 51%
    03:00 +18°C° 0 mm 0 m/S 711 mmHg 52%
    04:00 +18°C° 0 mm 0 m/S 711 mmHg 52%
    05:00 +18°C° 0 mm 0 m/S 711 mmHg 52%
    06:00 +18°C° 0 mm 0 m/S 712 mmHg 52%
    07:00 +21°C° 0 mm 1 m/S 712 mmHg 47%
    08:00 +23°C° 0 mm 1 m/S 713 mmHg 42%
    09:00 +25°C° 0 mm 1 m/S 713 mmHg 37%
    10:00 +26°C° 0 mm 1 m/S 713 mmHg 36%
    11:00 +27°C° 0 mm 2 m/S 713 mmHg 35%
    12:00 +28°C° 0 mm 2 m/S 713 mmHg 33%
    13:00 +28°C° 0 mm 3 m/S 713 mmHg 35%
    14:00 +28°C° 0 mm 3 m/S 713 mmHg 37%
    15:00 +28°C° 0 mm 4 m/S 713 mmHg 38%
    16:00 +26°C° 0 mm 4 m/S 713 mmHg 47%
    17:00 +25°C° 0 mm 4 m/S 713 mmHg 55%
    18:00 +22°C° 0 mm 3 m/S 713 mmHg 64%
    19:00 +22°C° 0 mm 3 m/S 713 mmHg 69%
    20:00 +21°C° 0 mm 2 m/S 713 mmHg 74%
    21:00 +21°C° 0 mm 1 m/S 714 mmHg 79%
    22:00 +21°C° 0 mm 1 m/S 714 mmHg 81%
    23:00 +20°C° 0 mm 1 m/S 714 mmHg 83%

    28 September, Donnerstag

    Zeit Temperatur Niederschläge Wind Luftdruck Luftfeuchtigkeit
    00:00 +20°C° 0 mm 1 m/S 714 mmHg 84%
    01:00 +20°C° 0 mm 1 m/S 714 mmHg 85%
    02:00 +19°C° 0 mm 1 m/S 713 mmHg 87%
    03:00 +17°C° 0 mm 0 m/S 713 mmHg 88%
    04:00 +17°C° 0 mm 0 m/S 713 mmHg 88%
    05:00 +17°C° 0 mm 0 m/S 713 mmHg 87%
    06:00 +17°C° 0 mm 0 m/S 714 mmHg 87%
    07:00 +20°C° 0 mm 1 m/S 714 mmHg 79%
    08:00 +22°C° 0 mm 1 m/S 714 mmHg 71%
    09:00 +23°C° 0 mm 1 m/S 715 mmHg 62%
    10:00 +24°C° 0 mm 1 m/S 715 mmHg 57%
    11:00 +25°C° 0 mm 2 m/S 715 mmHg 52%
    12:00 +27°C° 0 mm 2 m/S 715 mmHg 46%
    13:00 +27°C° 0 mm 3 m/S 714 mmHg 46%
    14:00 +27°C° 0 mm 3 m/S 714 mmHg 45%
    15:00 +27°C° 0 mm 3 m/S 714 mmHg 45%
    16:00 +25°C° 0 mm 3 m/S 714 mmHg 51%
    17:00 +24°C° 0 mm 3 m/S 714 mmHg 58%
    18:00 +22°C° 0 mm 3 m/S 714 mmHg 64%
    19:00 +21°C° 0 mm 3 m/S 714 mmHg 69%
    20:00 +20°C° 0 mm 2 m/S 714 mmHg 73%
    21:00 +21°C° 0 mm 1 m/S 714 mmHg 78%
    22:00 +20°C° 0 mm 1 m/S 714 mmHg 78%
    23:00 +18°C° 0 mm 0 m/S 714 mmHg 79%

    29 September, Freitag

    Zeit Temperatur Niederschläge Wind Luftdruck Luftfeuchtigkeit
    00:00 +18°C° 0 mm 0 m/S 714 mmHg 79%
    01:00 +18°C° 0 mm 0 m/S 713 mmHg 81%
    02:00 +17°C° 0 mm 0 m/S 713 mmHg 83%
    03:00 +19°C° 0 mm 1 m/S 713 mmHg 84%
    04:00 +19°C° 0 mm 1 m/S 713 mmHg 84%
    05:00 +19°C° 0 mm 1 m/S 713 mmHg 85%
    06:00 +19°C° 0 mm 1 m/S 713 mmHg 85%
    07:00 +20°C° 0 mm 1 m/S 713 mmHg 76%
    08:00 +20°C° 0 mm 0 m/S 713 mmHg 68%
    09:00 +21°C° 0 mm 0 m/S 714 mmHg 59%
    10:00 +25°C° 0 mm 1 m/S 714 mmHg 52%
    11:00 +26°C° 0 mm 2 m/S 713 mmHg 45%
    12:00 +27°C° 0 mm 2 m/S 713 mmHg 38%
    13:00 +27°C° 0 mm 3 m/S 713 mmHg 38%
    14:00 +27°C° 0 mm 3 m/S 713 mmHg 37%
    15:00 +27°C° 0 mm 4 m/S 712 mmHg 36%
    16:00 +26°C° 0 mm 3 m/S 712 mmHg 43%
    17:00 +24°C° 0 mm 3 m/S 712 mmHg 49%
    18:00 +22°C° 0 mm 3 m/S 712 mmHg 56%
    19:00 +21°C° 0 mm 2 m/S 712 mmHg 60%
    20:00 +20°C° 0 mm 2 m/S 712 mmHg 64%
    21:00 +21°C° 0 mm 1 m/S 712 mmHg 68%
    22:00 +20°C° 0 mm 1 m/S 712 mmHg 70%
    23:00 +20°C° 0 mm 1 m/S 712 mmHg 72%

    30 September, Samstag

    Zeit Temperatur Niederschläge Wind Luftdruck Luftfeuchtigkeit
    00:00 +17°C° 0 mm 0 m/S 712 mmHg 73%
    01:00 +17°C° 0 mm 0 m/S 711 mmHg 74%
    02:00 +17°C° 0 mm 0 m/S 711 mmHg 75%
    03:00 +16°C° 0 mm 0 m/S 711 mmHg 76%
    04:00 +16°C° 0 mm 0 m/S 711 mmHg 76%
    05:00 +16°C° 0 mm 0 m/S 711 mmHg 76%
    06:00 +16°C° 0 mm 0 m/S 711 mmHg 76%
    07:00 +18°C° 0 mm 0 m/S 711 mmHg 66%
    08:00 +21°C° 0 mm 1 m/S 712 mmHg 57%
    09:00 +23°C° 0 mm 1 m/S 712 mmHg 47%
    10:00 +24°C° 0 mm 1 m/S 712 mmHg 41%
    11:00 +25°C° 0 mm 2 m/S 712 mmHg 35%
    12:00 +27°C° 0 mm 2 m/S 712 mmHg 29%
    13:00 +27°C° 0 mm 3 m/S 711 mmHg 30%
    14:00 +27°C° 0 mm 3 m/S 711 mmHg 31%
    15:00 +27°C° 0 mm 4 m/S 711 mmHg 33%
    16:00 +25°C° 0 mm 3 m/S 711 mmHg 40%
    17:00 +24°C° 0 mm 3 m/S 711 mmHg 47%
    18:00 +22°C° 0 mm 3 m/S 711 mmHg 55%
    19:00 +21°C° 0 mm 2 m/S 711 mmHg 59%
    20:00 +21°C° 0 mm 1 m/S 711 mmHg 64%
    21:00 +20°C° 0 mm 1 m/S 711 mmHg 69%
    22:00 +20°C° 0 mm 1 m/S 711 mmHg 70%
    23:00 +20°C° 0 mm 1 m/S 711 mmHg 72%
    Mehr zeigen